Flag for U.S.A. Weather past 2 weeks in Mansfield, Texas, U.S.A.

Now
82 °F

Clear.


Feels Like: 82 °F
Forecast: 73 / 98 °F
Wind: 5 mph from Southeast

Location: Burleson-Rendon

Current Time: Aug 2, 2015 at 10:31:31 PM

Latest Report: Aug 2, 2015 at 9:55 PM


Visibility: 10 mi

Pressure: 29.89 "Hg

Humidity: 41%

Dew point: 56 °F

Location of MansfieldLocation

Historic Weather in Mansfield — Graph

°F

Mansfield temperature yesterday

Maximum temperature yesterday: 97 °F (at 3:51 PM)
Minimum temperature yesterday: 72 °F (at 6:48 AM)
Average temperature yesterday: 82 °F

Past Weeks' High & Low Weather Summary

 TemperatureHumidityPressure
High102 °F (Jul 30, 2:52 PM)89% (Jul 19, 6:53 AM)30.12 "Hg (Jul 19, 6:53 AM)
Low71 °F (Jul 26, 5:35 AM)22% (Aug 1, 6:52 PM)29.82 "Hg (Jul 21, 6:50 PM)
Average84 °F58%29.96 "Hg
* Reported Jul 18 9:15 PM — Aug 2 9:15 PM, Mansfield, Weather by CustomWeather, © 2015

Note: Actual official high and low records may vary slightly from our data, if they occured in-between our weather recording intervals... More about our weather records

Advertising

Mansfield weather history for previous 24 hours

 ConditionsComfort  
Time TempWeatherWind HumidityBarometerVisibility
9:15 PM
Sun, Aug 2
84 °FSunny.3 mph41%29.87 "Hg10 mi
8:55 PM85 °FSunny.5 mph39%29.87 "Hg10 mi
8:35 PM87 °FSunny.5 mph34%29.87 "Hg10 mi
8:15 PM89 °FSunny.5 mph33%29.87 "Hg10 mi
6:54 PM97 °FSunny.6 mph23%29.87 "Hg10 mi
5:54 PM99 °FSunny.5 mph22%29.89 "Hg10 mi
4:46 PM99 °FSunny.6 mph22%29.90 "Hg10 mi
3:49 PM97 °FSunny.6 mph23%29.92 "Hg10 mi
2:47 PM99 °FSunny.8 mph24%29.94 "Hg10 mi
1:50 PM97 °FSunny.6 mph25%29.95 "Hg10 mi
12:51 PM93 °FScattered clouds.8 mph28%29.98 "Hg10 mi
11:50 AM93 °FScattered clouds.12 mph28%30.00 "Hg10 mi
10:52 AM91 °FPartly sunny.9 mph30%30.00 "Hg10 mi
9:55 AM91 °FPartly sunny.9 mph30%30.00 "Hg10 mi
9:52 AM90 °FPartly sunny.12 mph31%30.00 "Hg10 mi
8:48 AM88 °FPartly sunny.8 mph38%29.99 "Hg10 mi
7:47 AM81 °FScattered clouds.6 mph51%29.98 "Hg10 mi
6:45 AM75 °FPassing clouds.5 mph65%29.96 "Hg10 mi
6:35 AM75 °FPassing clouds.3 mph67%29.96 "Hg10 mi
6:15 AM75 °FOvercast.No wind67%29.96 "Hg10 mi
5:55 AM75 °FOvercast.3 mph65%29.96 "Hg10 mi
5:35 AM75 °FPassing clouds.No wind63%29.95 "Hg10 mi
5:15 AM76 °FClear.3 mph63%29.95 "Hg10 mi
4:55 AM77 °FClear.5 mph62%29.95 "Hg10 mi
4:35 AM78 °FPassing clouds.3 mph59%29.95 "Hg10 mi
4:15 AM78 °FPassing clouds.No wind58%29.95 "Hg10 mi
3:55 AM78 °FPassing clouds.No wind57%29.95 "Hg10 mi
3:35 AM78 °FPassing clouds.No wind56%29.96 "Hg10 mi
3:15 AM80 °FPassing clouds.5 mph51%29.96 "Hg10 mi
2:55 AM80 °FPassing clouds.3 mph53%29.96 "Hg10 mi
2:35 AM80 °FPassing clouds.3 mph54%29.96 "Hg10 mi
2:15 AM78 °FPassing clouds.3 mph58%29.97 "Hg10 mi
1:55 AM78 °FPassing clouds.No wind58%29.97 "Hg10 mi
1:35 AM78 °FClear.No wind61%29.97 "Hg10 mi
1:15 AM79 °FPassing clouds.3 mph61%29.97 "Hg10 mi
12:55 AM80 °FPassing clouds.No wind56%29.97 "Hg10 mi
12:35 AM80 °FPassing clouds.3 mph55%29.97 "Hg7 mi
12:15 AM80 °FPassing clouds.No wind54%29.97 "Hg10 mi
11:55 PM
Sat, Aug 1
80 °FPassing clouds.No wind57%29.98 "Hg10 mi
11:35 PM80 °FClear.No wind56%29.98 "Hg10 mi
11:15 PM79 °FClear.No wind59%29.98 "Hg10 mi
10:35 PM81 °FClear.No wind52%29.97 "Hg10 mi
10:15 PM82 °FClear.No wind50%29.97 "Hg10 mi
Weather by CustomWeather, © 2015

See weather overviewHow to use our weather pages